Norfolk, NE

10:23 AM CST on February 20, 2018 (GMT -0600)
Stefan Memorial

Weather History for KOFK - October, 2012

Change the Weather History Date:

Tuesday, October 16, 2012

  Actual Average Record
Temperature  
Mean Temperature 63 °F 51 °F  
Max Temperature 77 °F 64 °F 90 °F (1910)
Min Temperature 49 °F 39 °F 22 °F (1943)
Degree Days  
Heating Degree Days 2 14  
Month to date heating degree days 238 184  
Since 1 July heating degree days 357 326  
Cooling Degree Days 0 0  
Month to date cooling degree days 0 8  
Year to date cooling degree days 1373 914  
Growing Degree Days 12 (Base 50)    
Moisture  
Dew Point 41 °F    
Average Humidity 53    
Maximum Humidity 80    
Minimum Humidity 26    
Precipitation  
Precipitation 0.00 in 0.07 in 2.12 in (1968)
Month to date precipitation 0.23 1.22  
Year to date precipitation 12.68 24.44  
Snow  
Snow 0.00 in 0.00 in - ()
Month to date snowfall 0.0 0.2  
Since 1 July snowfall 0.0 0.2  
Snow Depth 0.00 in    
Sea Level Pressure  
Sea Level Pressure 29.49 in    
Wind  
Wind Speed 12 mph (SW)    
Max Wind Speed 21 mph    
Max Gust Speed 25 mph    
Visibility 10 miles    
Events      
T = Trace of Precipitation, MM = Missing Value Source: NWS Daily Summary

Daily Weather History Graph

Daily Weather History Graph

Search for Another Location

Airport or City:

Trip Planner

Search our weather history database for the weather conditions in past years. The results will help you decide how hot, cold, wet, or windy it might be!

Date:

Astronomy

Oct. 16, 2012 Rise Set
Actual Time 7:43 AM CDT 6:45 PM CDT
Civil Twilight 7:15 AM CDT 7:13 PM CDT
Nautical Twilight 6:43 AM CDT 7:46 PM CDT
Astronomical Twilight 6:10 AM CDT 8:18 PM CDT
Moon 9:10 AM CDT (10/16) 7:28 PM CDT (10/16)
Length of Visible Light 11h 58m
Length of Day
11h 01m
New Moon, 2% of the Moon is Illuminated
Oct 16
New Moon
Oct 21
First Quarter
Oct 29
Full
Nov 6
Last Quarter
Nov 13
New

Hourly Weather History & Observations

Time (CDT) Temp. Dew Point Humidity Pressure Visibility Wind Dir Wind Speed Gust Speed Precip Events Conditions
12:56 AM 62.1 °F 44.1 °F 52% 29.64 in 10.0 mi South 18.4 mph - N/A   Clear
1:56 AM 61.0 °F 43.0 °F 52% 29.61 in 10.0 mi South 15.0 mph 21.9 mph N/A   Clear
2:56 AM 59.0 °F 43.0 °F 55% 29.58 in 10.0 mi South 13.8 mph - N/A   Clear
3:56 AM 60.1 °F 44.1 °F 55% 29.54 in 10.0 mi South 13.8 mph - N/A   Clear
5:56 AM 48.9 °F 42.1 °F 77% 29.55 in 10.0 mi West 4.6 mph - N/A   Clear
7:56 AM 55.9 °F 37.0 °F 49% 29.57 in 10.0 mi NW 11.5 mph - N/A   Clear
8:56 AM 61.0 °F 39.0 °F 44% 29.57 in 10.0 mi WNW 12.7 mph - N/A   Clear
9:56 AM 66.9 °F 42.1 °F 40% 29.58 in 10.0 mi NW 13.8 mph 19.6 mph N/A   Clear
11:56 AM 72.0 °F 43.0 °F 35% 29.57 in 10.0 mi NW 16.1 mph - N/A   Clear
12:56 PM 73.9 °F 44.1 °F 34% 29.53 in 10.0 mi WNW 12.7 mph 18.4 mph N/A   Clear
1:56 PM 75.0 °F 44.1 °F 33% 29.49 in 10.0 mi WNW 11.5 mph - N/A   Clear
2:56 PM 75.9 °F 43.0 °F 31% 29.47 in 10.0 mi NW 12.7 mph - N/A   Clear
3:56 PM 77.0 °F 41.0 °F 28% 29.44 in 10.0 mi West 10.4 mph 19.6 mph N/A   Clear
4:56 PM 77.0 °F 39.0 °F 25% 29.43 in 10.0 mi WSW 9.2 mph - N/A   Clear
6:56 PM 68.0 °F 37.9 °F 33% 29.42 in 10.0 mi South 4.6 mph - N/A   Clear
7:56 PM 61.0 °F 37.9 °F 42% 29.42 in 10.0 mi South 8.1 mph - N/A   Clear
8:56 PM 66.0 °F 37.9 °F 36% 29.38 in 10.0 mi South 8.1 mph - N/A   Clear
9:56 PM 68.0 °F 37.9 °F 33% 29.35 in 10.0 mi South 10.4 mph - N/A   Clear
10:56 PM 66.9 °F 39.0 °F 36% 29.32 in 10.0 mi South 12.7 mph - N/A   Clear
11:56 PM 66.9 °F 39.9 °F 37% 29.31 in 10.0 mi South 18.4 mph 25.3 mph N/A   Overcast